Flag for Germany Weather past 2 weeks in Frechen, North Rhine-Westphalia, Germany

Now
64 °F

Fog.


Feels Like: 64 °F
Forecast: 61 / 74 °F
Wind: 6 mph from Northwest

Location: Noervenich

Current Time: Jul 29, 2014 at 5:04:03 AM

Latest Report: Jul 29, 2014 at 4:20 AM


Visibility: 2 mi

Pressure: 29.86 "Hg

Humidity: 94%

Dew point: 63 °F

Location of FrechenLocation

Historic Weather in Frechen — Graph

°F

Frechen temperature yesterday

Maximum temperature yesterday: 79 °F (at 12:20 PM)
Minimum temperature yesterday: 64 °F (at 4:20 AM)
Average temperature yesterday: 69 °F

Past Weeks' High & Low Weather Summary

 TemperatureHumidityPressure
High93 °F (Jul 18, 5:20 PM)100% (Jul 14, 5:20 AM)30.18 "Hg (Jul 14, 5:20 AM)
Low55 °F (Jul 14, 5:20 AM)28% (Jul 18, 5:20 PM)29.77 "Hg (Jul 20, 3:20 AM)
Average70 °F74%29.98 "Hg
* Reported Jul 14 3:20 AM — Jul 29 3:20 AM, Frechen, Weather by CustomWeather, © 2014

Note: Actual official high and low records may vary slightly from our data, if they occured in-between our weather recording intervals... More about our weather records

Advertising

Frechen weather history for previous 24 hours

 ConditionsComfort  
Time TempWeatherWind HumidityBarometerVisibility
3:20 AM
Jul 29
66 °FFog.6 mph94%29.86 "Hg3 mi
2:20 AM66 °FPassing clouds.6 mph88%29.86 "Hg4 mi
1:20 AM66 °FPartly cloudy.6 mph94%29.86 "Hg4 mi
12:20 AM66 °FPartly cloudy.3 mph94%29.86 "Hg4 mi
11:20 PM
Jul 28
66 °FPassing clouds.5 mph94%29.86 "Hg4 mi
10:20 PM68 °FPartly sunny.5 mph88%29.86 "Hg4 mi
9:20 PM70 °FPartly sunny.1 mph88%29.86 "Hg4 mi
8:20 PM70 °FPartly sunny.No wind88%29.86 "Hg5 mi
7:20 PM72 °FPartly sunny.3 mph83%29.83 "Hg5 mi
6:20 PM72 °FPartly sunny.5 mph83%29.83 "Hg5 mi
5:20 PM72 °FRain. Partly sunny.2 mph83%29.86 "Hg5 mi
4:20 PM72 °FSprinkles. Scattered clouds.8 mph78%29.83 "Hg5 mi
3:20 PM72 °FScattered clouds.12 mph83%29.83 "Hg5 mi
2:20 PM70 °FSprinkles. Scattered clouds.18 mph78%29.86 "HgN/A
1:20 PM75 °FScattered clouds.6 mph69%29.83 "HgN/A
12:20 PM79 °FScattered clouds.5 mph54%29.83 "HgN/A
11:20 AM77 °FScattered clouds.5 mph61%29.86 "HgN/A
10:20 AM75 °FScattered clouds.5 mph65%29.86 "HgN/A
9:20 AM70 °FScattered clouds.5 mph78%29.86 "HgN/A
8:20 AM66 °FScattered clouds.1 mph88%29.89 "HgN/A
7:20 AM64 °FPartly sunny.1 mph94%29.89 "HgN/A
6:20 AM64 °FPassing clouds.1 mph94%29.89 "HgN/A
5:20 AM64 °FPassing clouds.1 mph94%29.89 "HgN/A
Weather by CustomWeather, © 2014

See weather overviewHow to use our weather pages